Regional Weather Roundup
Issued by NWS

Home | Current Version | Previous Version | Graphics & Text | Print | Product List | Glossary On
Versions: 1 2 3 4 5 6 7 8 9 10 11 12 13 14 15 16 17 18 19 20 21 22 23 24 25 26 27 28 29 30 31 32 33 34 35 36 37 38 39 40 41 42 43 44 45 46 47 48 49 50
000
ASUS45 KBOU 292210
RWRCO

WEATHER ROUNDUP FOR COLORADO
NATIONAL WEATHER SERVICE DENVER/BOULDER CO
400 PM MDT WED JUL 29 2015

NOTE: "FAIR" INDICATES FEW OR NO CLOUDS BELOW 12000 FEET WITH NO
SIGNIFICANT WEATHER AND/OR OBSTRUCTIONS TO VISIBILITY.

COZ001>005-013-030-031-292300-
...NORTHWEST COLORADO...

CITY           SKY/WX    TMP DP  RH WIND       PRES   REMARKS
CRAIG          SUNNY     86  21   9 NW17      30.31F
HAYDEN         SUNNY     82  23  11 W15G25    30.34F
MEEKER         MOSUNNY   85  22  10 W9G18     30.32F
MOUNT WERNER   NOT AVBL
STEAMBOAT SPGS SUNNY     79  23  12 W9        30.36F
WALDEN         SUNNY     75  19  12 SW14      30.45S
$$

COZ006>008-011-292300-
...WEST CENTRAL VALLEYS...

CITY           SKY/WX    TMP DP  RH WIND       PRES   REMARKS
GRAND JUNCTION MOSUNNY   91  25   9 W10       30.18F
MONTROSE       SUNNY     89  31  12 N12       30.25F
EAGLE          MOSUNNY   84  25  11 SW13G26   30.31F
RIFLE          MOSUNNY   89  27  10 NW5       30.22F
DELTA          SUNNY     96  26   8 CALM      30.19F
NUCLA          SUNNY     90  27  10 NE5       30.28F
$$

COZ017>023-064>068-292300-
...SOUTHWEST COLORADO...

CITY           SKY/WX    TMP DP  RH WIND       PRES   REMARKS
DURANGO        CLOUDY    73  44  35 SE15G21   30.35F
CORTEZ         PTSUNNY   80  40  23 S12       30.25F
PAGOSA SPRINGS CLOUDY    73  40  30 SW7       30.43R
TELLURIDE      PTSUNNY   75  22  14 W10G16    30.52F
WOLF CREEK PAS NOT AVBL
$$

COZ009-010-012-014-032>034-037-058>063-292300-
...CENTRAL COLORADO...

CITY           SKY/WX    TMP DP  RH WIND       PRES   REMARKS
ASPEN          MOSUNNY   80  33  18 NE6       30.39F
BUENA VISTA    MOSUNNY   78  42  28 S18G24    30.37F
COPPER MTN     MOSUNNY   64  21  19 W17G26    30.73F
BERTHOUD PASS  PTSUNNY   54  45  71 MISG      30.78F
COTTONWOOD PAS MOSUNNY   73  41  31 SE14G21   30.53F
GUNNISON       MOSUNNY   81  27  13 NW7       30.40S
KREMMLING      SUNNY     81  19  10 N14G20    30.37F
LEADVILLE      MOSUNNY   72  27  18 N8        30.53F
MONARCH PASS   PTSUNNY   64  28  25 SW15G21   30.82S
SALIDA         MOSUNNY   78  50  37 SE24G32   30.43F
SUNLIGHT       MOSUNNY   64  34  32 W6        30.68F
WILKERSON PASS CLOUDY    61  43  51 S3        30.69S
$$

COZ069>075-292300-
...SAN LUIS VALLEY/SANGRE DE CRISTO MOUNTAINS...

CITY           SKY/WX    TMP DP  RH WIND       PRES   REMARKS
ALAMOSA        CLOUDY    76  44  32 W12       30.39S
LA VETA PASS   LGT RAIN  54  46  76 MISG      30.63S
SAGUACHE       PTSUNNY   79  46  31 S10       30.40S
$$

COZ035-036-038>040-292300-
...NORTHERN COLORADO FRONT RANGE...

CITY           SKY/WX    TMP DP  RH WIND       PRES   REMARKS
DENVER INTL AP MOSUNNY   85  47  26 SE16G25   30.26F
DMNS CITY PARK   N/A     83  46  27 SE12G17   30.24F
AURORA         NOT AVBL
FRONT RANGE AP MOSUNNY   82  46  28 SE17G25   30.28F
ERIE MUNI ARPT SUNNY     86  47  25 N10       30.22F
BOULDER MUN AP SUNNY     84  48  28 N9        30.24S
CENTENNIAL     MOSUNNY   82  49  31 S17G25    30.28F
BROOMFIELD     PTSUNNY   84  48  28 SE10      30.27F
FORT COLLINS   SUNNY     86  54  32 N3        30.21F
LONGMONT       SUNNY     89  49  25 N9        30.24F
$$

COZ041-046-047-076>085-087-088-292300-
...PIKES PEAK/PALMER DIVIDE AND SOUTHERN FOOTHILLS...

CITY           SKY/WX    TMP DP  RH WIND       PRES   REMARKS
COLO. SPRINGS  MOSUNNY   78  49  35 S12       30.35F
A. F. ACADEMY  MOSUNNY   76  49  38 S16       30.36F
ELLICOTT       SUNNY    N/A N/A N/A S13G21    30.34F
FALCON         SUNNY     75  48  38 SE9       30.41F
FORT CARSON    SUNNY     79  51  36 S12       30.31F
LIMON          SUNNY     78  46  32 SE20G26   30.32F
MONUMENT HILL  NOT AVBL
TRINIDAD       LGT RAIN  63  58  83 S14       30.33F
$$

COZ042>045-048>051-090-091-292300-
...NORTHEAST COLORADO...

CITY           SKY/WX    TMP DP  RH WIND       PRES   REMARKS
GREELEY ARPT   SUNNY     88  50  27 SE10G20   30.23F
AKRON          SUNNY     81  46  29 S14G24    30.28F
BURLINGTON     SUNNY     80  42  25 S14       30.29F
WRAY           SUNNY     86  40  20 SE15      30.25F
STERLING       SUNNY     84  50  30 S12G21    30.23F
HOLYOKE        SUNNY     84  45  24 S12G18    30.25F
FORT MORGAN    SUNNY     84  47  27 SE12G21   30.26F
$$

COZ086-089-092>099-292300-
...SOUTHEAST COLORADO...

CITY           SKY/WX    TMP DP  RH WIND       PRES   REMARKS
PUEBLO         MOSUNNY   87  47  24 E16       30.23F
LA JUNTA       MOSUNNY   87  47  24 E16G23    30.23F
LAMAR          SUNNY     85  49  28 SE12      30.21F
SPRINGFIELD      N/A     81  52  36 VRB6      30.25F
$$



USA.gov is the U.S. government's official web portal to all federal, state and local government web resources and services.